Columbus, OH

9:41 AM EST on February 28, 2017 (GMT -0500)
Rickenbacker International

Weather History for KLCK - August, 2013

Change the Weather History Date:

Wednesday, August 28, 2013

  Actual Average Record
Temperature  
Mean Temperature 81 °F -  
Max Temperature 88 °F 82 °F 91 °F (2004)
Min Temperature 74 °F 60 °F 52 °F (2015)
Cooling Degree Days 16    
Growing Degree Days 31 (Base 50)    
Moisture  
Dew Point 69 °F    
Average Humidity 68    
Maximum Humidity 82    
Minimum Humidity 52    
Precipitation  
Precipitation 0.00 in - - ()
Sea Level Pressure  
Sea Level Pressure 29.91 in    
Wind  
Wind Speed 7 mph (West)    
Max Wind Speed 15 mph    
Max Gust Speed 22 mph    
Visibility 9 miles    
Events Rain    
Averages and records for this station are not official NWS values.
T = Trace of Precipitation, MM = Missing Value Source: NWS Daily Summary

Daily Weather History Graph

Daily Weather History Graph

Search for Another Location

Airport or City:

Trip Planner

Search our weather history database for the weather conditions in past years. The results will help you decide how hot, cold, wet, or windy it might be!

Date:

Astronomy

Aug. 28, 2013 Rise Set
Actual Time 6:56 AM EDT 8:08 PM EDT
Civil Twilight 6:28 AM EDT 8:36 PM EDT
Nautical Twilight 5:54 AM EDT 9:09 PM EDT
Astronomical Twilight 5:19 AM EDT 9:44 PM EDT
Moon 12:03 AM EDT 2:45 PM EDT
Length of Visible Light 14h 08m
Length of Day
13h 12m
Waning Gibbous, 47% of the Moon is Illuminated
Aug 28
Waning Gibbous
Sep 5
New
Sep 12
First Quarter
Sep 19
Full
Sep 26
Last Quarter

Hourly Weather History & Observations

Time (EDT) Temp. Heat Index Dew Point Humidity Pressure Visibility Wind Dir Wind Speed Gust Speed Precip Events Conditions
12:15 AM 76.8 °F - 69.8 °F 79% 29.96 in 7.0 mi SW 3.5 mph - N/A   Clear
12:35 AM 76.1 °F - 69.4 °F 80% 29.96 in 7.0 mi SSW 4.6 mph - N/A   Clear
12:55 AM 75.7 °F - 69.1 °F 80% 29.95 in 7.0 mi SSW 6.9 mph - N/A   Clear
1:15 AM 75.7 °F - 69.1 °F 80% 29.94 in 7.0 mi SSW 5.8 mph - N/A   Clear
1:35 AM 75.6 °F - 69.1 °F 80% 29.95 in 7.0 mi SW 3.5 mph - N/A   Clear
1:55 AM 75.2 °F - 68.9 °F 81% 29.95 in 7.0 mi SSW 5.8 mph - N/A   Clear
2:15 AM 75.2 °F - 69.1 °F 81% 29.94 in 7.0 mi SSW 5.8 mph - N/A   Clear
2:35 AM 75.2 °F - 69.1 °F 81% 29.94 in 7.0 mi SW 6.9 mph - N/A   Clear
2:55 AM 75.2 °F - 69.1 °F 81% 29.94 in 7.0 mi WSW 6.9 mph - N/A   Clear
3:15 AM 75.4 °F - 69.1 °F 81% 29.95 in 7.0 mi WSW 6.9 mph - N/A   Clear
3:35 AM 75.2 °F - 68.9 °F 81% 29.94 in 7.0 mi SW 5.8 mph - N/A   Scattered Clouds
3:55 AM 74.8 °F - 68.9 °F 82% 29.94 in 7.0 mi SW 5.8 mph - N/A   Clear
4:15 AM 74.8 °F - 68.9 °F 82% 29.93 in 7.0 mi SW 5.8 mph - N/A   Clear
4:35 AM 75.0 °F - 68.9 °F 81% 29.92 in 10.0 mi WSW 9.2 mph - N/A Rain Light Rain
4:55 AM 75.2 °F - 68.9 °F 81% 29.91 in 10.0 mi WSW 10.4 mph - N/A   Clear
5:15 AM 75.4 °F - 68.7 °F 80% 29.91 in 10.0 mi SW 8.1 mph - N/A   Clear
5:35 AM 75.4 °F - 68.5 °F 79% 29.91 in 10.0 mi SW 8.1 mph - N/A   Clear
5:55 AM 75.2 °F - 68.7 °F 80% 29.91 in 10.0 mi WSW 8.1 mph - N/A Rain Light Rain
6:15 AM 75.0 °F - 68.5 °F 80% 29.90 in 10.0 mi WSW 10.4 mph - N/A Rain Light Rain
6:35 AM 75.2 °F - 68.4 °F 79% 29.88 in 10.0 mi WSW 10.4 mph - N/A   Clear
6:55 AM 75.4 °F - 68.2 °F 78% 29.86 in 10.0 mi WSW 15.0 mph 20.7 mph N/A   Clear
7:15 AM 75.4 °F - 68.4 °F 79% 29.88 in 10.0 mi West 13.8 mph 21.9 mph N/A   Clear
7:35 AM 75.7 °F - 68.4 °F 78% 29.88 in 10.0 mi WSW 9.2 mph - N/A   Clear
7:55 AM 76.1 °F - 68.2 °F 76% 29.91 in 10.0 mi WSW 5.8 mph - N/A   Mostly Cloudy
8:15 AM 76.8 °F - 68.4 °F 75% 29.91 in 10.0 mi WSW 4.6 mph - N/A   Scattered Clouds
8:35 AM 77.7 °F - 68.7 °F 74% 29.91 in 10.0 mi SW 3.5 mph - N/A   Clear
8:55 AM 78.6 °F - 68.9 °F 72% 29.92 in 10.0 mi SW 3.5 mph - N/A   Clear
9:15 AM 80.1 °F 82.9 °F 69.3 °F 69% 29.92 in 10.0 mi West 6.9 mph - N/A   Clear
9:35 AM 81.1 °F 84.2 °F 68.9 °F 66% 29.91 in 10.0 mi WSW 8.1 mph - N/A   Clear
9:55 AM 81.7 °F 84.9 °F 68.9 °F 65% 29.91 in 10.0 mi West 9.2 mph - N/A   Clear
10:15 AM 82.4 °F 85.8 °F 68.9 °F 64% 29.91 in 10.0 mi West 10.4 mph - N/A   Clear
10:35 AM 83.5 °F 86.9 °F 68.7 °F 61% 29.91 in 10.0 mi West 10.4 mph - N/A   Clear
10:55 AM 84.6 °F 87.6 °F 68.0 °F 57% 29.91 in 10.0 mi West 12.7 mph - N/A   Clear
11:15 AM 84.4 °F 87.1 °F 67.1 °F 56% 29.91 in 10.0 mi WNW 8.1 mph - N/A   Mostly Cloudy
11:35 AM 84.6 °F 87.4 °F 67.5 °F 56% 29.91 in 10.0 mi WSW 10.4 mph - N/A   Overcast
11:55 AM 84.9 °F 87.9 °F 67.8 °F 56% 29.91 in 10.0 mi West 5.8 mph - N/A   Mostly Cloudy
12:15 PM 85.8 °F 89.1 °F 68.0 °F 55% 29.90 in 10.0 mi West 8.1 mph - N/A   Mostly Cloudy
12:35 PM 86.5 °F 89.6 °F 67.5 °F 53% 29.90 in 10.0 mi WNW 9.2 mph - N/A   Mostly Cloudy
12:55 PM 85.6 °F 88.2 °F 66.9 °F 53% 29.90 in 10.0 mi West 5.8 mph - N/A   Overcast
1:15 PM 86.7 °F 89.6 °F 67.3 °F 52% 29.90 in 10.0 mi WNW 6.9 mph - N/A   Overcast
1:35 PM 86.2 °F 89.4 °F 67.8 °F 54% 29.89 in 10.0 mi West 6.9 mph - N/A   Overcast
1:55 PM 87.8 °F 91.8 °F 68.5 °F 53% 29.89 in 10.0 mi West 8.1 mph - N/A   Overcast
2:15 PM 87.3 °F 91.6 °F 69.3 °F 55% 29.88 in 10.0 mi West 9.2 mph - N/A   Overcast
2:35 PM 88.2 °F 92.9 °F 69.4 °F 54% 29.88 in 10.0 mi West 11.5 mph - N/A   Mostly Cloudy
2:55 PM 87.1 °F 92.0 °F 70.0 °F 57% 29.88 in 10.0 mi West 10.4 mph - N/A   Mostly Cloudy
3:15 PM 87.8 °F 93.0 °F 70.2 °F 56% 29.88 in 10.0 mi West 10.4 mph - N/A   Scattered Clouds
3:35 PM 88.0 °F 92.5 °F 69.3 °F 54% 29.88 in 10.0 mi West 10.4 mph - N/A   Mostly Cloudy
3:55 PM 88.3 °F 92.8 °F 69.3 °F 53% 29.87 in 10.0 mi WNW 12.7 mph 19.6 mph N/A   Overcast
4:15 PM 88.2 °F 92.9 °F 69.4 °F 54% 29.87 in 10.0 mi WNW 10.4 mph - N/A   Overcast
4:35 PM 87.4 °F 91.5 °F 69.1 °F 54% 29.87 in 10.0 mi NW 11.5 mph - N/A   Mostly Cloudy
4:55 PM 88.0 °F 92.1 °F 69.1 °F 53% 29.87 in 10.0 mi NW 10.4 mph - N/A   Mostly Cloudy
5:15 PM 86.9 °F 91.3 °F 69.3 °F 56% 29.88 in 10.0 mi NNW 12.7 mph 17.3 mph N/A   Overcast
5:35 PM 87.3 °F 91.6 °F 69.4 °F 55% 29.88 in 10.0 mi NW 12.7 mph - N/A   Mostly Cloudy
5:55 PM 87.1 °F 91.6 °F 69.4 °F 56% 29.87 in 10.0 mi NNW 15.0 mph - N/A   Scattered Clouds
6:15 PM 86.9 °F 91.3 °F 69.4 °F 56% 29.87 in 10.0 mi NW 11.5 mph 17.3 mph N/A   Clear
6:35 PM 86.7 °F 90.6 °F 68.9 °F 55% 29.88 in 10.0 mi NNW 11.5 mph - N/A   Scattered Clouds
6:55 PM 86.0 °F 89.7 °F 68.5 °F 56% 29.88 in 10.0 mi NNW 11.5 mph - N/A   Scattered Clouds
7:15 PM 85.3 °F 88.8 °F 68.7 °F 57% 29.88 in 10.0 mi NNW 6.9 mph - N/A   Clear
7:35 PM 84.6 °F 88.2 °F 68.9 °F 59% 29.89 in 10.0 mi North 9.2 mph - N/A   Scattered Clouds
7:55 PM 83.8 °F 87.5 °F 69.1 °F 61% 29.90 in 10.0 mi NNE 12.7 mph 17.3 mph N/A   Mostly Cloudy
8:15 PM 81.9 °F 85.4 °F 69.6 °F 66% 29.91 in 7.0 mi North 10.4 mph - N/A   Mostly Cloudy
8:35 PM 80.8 °F 84.1 °F 69.8 °F 69% 29.92 in 7.0 mi North 5.8 mph - N/A   Scattered Clouds
8:55 PM 80.4 °F 83.6 °F 69.8 °F 70% 29.93 in 7.0 mi North 6.9 mph - N/A   Mostly Cloudy
9:15 PM 79.9 °F - 69.3 °F 70% 29.94 in 7.0 mi North 8.1 mph - N/A   Scattered Clouds
9:35 PM 79.3 °F - 68.7 °F 70% 29.95 in 10.0 mi North 8.1 mph - N/A   Scattered Clouds
9:55 PM 78.4 °F - 68.2 °F 71% 29.95 in 10.0 mi North 8.1 mph - N/A   Clear
10:15 PM 77.9 °F - 68.2 °F 72% 29.96 in 10.0 mi North 5.8 mph - N/A   Clear
10:35 PM 77.5 °F - 67.8 °F 72% 29.97 in 10.0 mi North 5.8 mph - N/A   Clear
10:55 PM 77.2 °F - 67.5 °F 72% 29.97 in 10.0 mi NNE 9.2 mph - N/A   Clear
11:15 PM 76.6 °F - 67.3 °F 73% 29.98 in 7.0 mi NNE 5.8 mph - N/A   Clear
11:35 PM 75.9 °F - 67.3 °F 74% 29.98 in 10.0 mi NNE 6.9 mph - N/A   Clear
11:55 PM 75.4 °F - 67.5 °F 76% 29.98 in 10.0 mi North 8.1 mph - N/A   Clear